Regional Weather Roundup
Issued by NWS

Home | Current Version | Previous Version | Graphics & Text | Print | Product List | Glossary On
Versions: 1 2 3 4 5 6 7 8 9 10 11 12 13 14 15 16 17 18 19 20 21 22 23 24 25 26 27 28 29 30 31 32 33 34 35 36 37 38 39 40 41 42 43 44 45 46 47 48 49 50
000
ASUS44 KMEG 202310
RWRTN
TENNESSEE HOURLY STATE WEATHER ROUNDUP
NATIONAL WEATHER SERVICE MEMPHIS TN
600 PM CDT MON APR 20 2015

TNZ002-004-019-021-049-052-054-088>092-210000-
WEST TENNESSEE

CITY           SKY/WX    TMP DP  RH WIND       PRES   REMARKS
MEMPHIS INTL   MOSUNNY   65  38  36 W9G20     29.85R
NWS MEMPHIS      N/A     65 N/A N/A MISG        N/A
JACKSON        MOSUNNY   64  40  41 W15       29.82R
DYERSBURG      MOSUNNY   64  36  34 W13       29.83R
UNION CITY     PTSUNNY   61  32  33 W10       29.79R
PARIS            N/A     61  37  41 W9        29.79S
LEXINGTON      PTSUNNY   61  39  44 W6        29.81R
SAVANNAH       PTSUNNY   63  32  31 W9        29.83R
$$

TNZ008-025-027-028-033-062-065-066-210000-
NORTH MIDDLE TENNESSEE

CITY           SKY/WX    TMP DP  RH WIND       PRES   REMARKS
NASHVILLE      MOSUNNY   61  42  49 W10G18    29.78R
CLARKSVILLE    CLOUDY    62  40  44 W13       29.76R
SMYRNA         MOSUNNY   61  47  59 W13       29.79R
COOKEVILLE     PTSUNNY   59  50  72 NW9       29.76R
CROSSVILLE     LGT RAIN  54  49  83 W15G25    29.77R
$$

TNZ061-075-076-078-094-096-097-210000-
SOUTH MIDDLE TENNESSEE

CITY           SKY/WX    TMP DP  RH WIND       PRES   REMARKS
FAYETTEVILLE   SUNNY     61  45  55 W14       29.79R
TULLAHOMA      SUNNY     61  46  59 W10       29.79R
WINCHESTER     MOSUNNY   63  48  59 W12       29.78R
MCMINNVILLE    PTSUNNY   59  50  72 NW8       29.78R
COLUMBIA       PTSUNNY   63  32  31 VRB5      29.78R
SHELBYVILLE    SUNNY     63  46  55 W15       29.80R
$$

TNZ017-018-042-046-047-210000-
NORTHEAST TENNESSEE

CITY           SKY/WX    TMP DP  RH WIND       PRES   REMARKS
TRI CITIES     PTSUNNY   69  46  43 SW23G30   29.63R
ELIZABETHTON   MOCLDY    66  48  52 SW13      29.64R
$$

TNZ012-013-036-069-073-074-210000-
CENTRAL EAST TENNESSEE

CITY           SKY/WX    TMP DP  RH WIND       PRES   REMARKS
KNOXVILLE      PTSUNNY   66  48  52 W17       29.69R
OAK RIDGE      PTSUNNY   67  44  43 SW10G18   29.71R
GATLINBURG     MOCLDY    68  45  42 W16       29.67R
MORRISTOWN     CLEAR     66  50  55 W14       29.68R
$$

TNZ083-085-099-210000-
SOUTHEAST TENNESSEE

CITY           SKY/WX    TMP DP  RH WIND       PRES   REMARKS
CHATTANOOGA    MOSUNNY   68  45  43 W15G22    29.75R
$$

SKY/WX REPORTED AS FAIR MEANS FEW OR NO CLOUDS BELOW
12 THOUSAND FEET.




USA.gov is the U.S. government's official web portal to all federal, state and local government web resources and services.